Погода в Жимбире

Россия / Забайкальский край     51°31′02″N   114°00′50″E
темп.,
°C
ветер,
м/с
пор.,
м/с
влажн.,
%
обл.,
%
осадки,
мм/ч
давл.,
гПа
погр.,
м
29 января, сб
сб2900:00−29зюз2110048 0.0 10409
03:00−30зюз2110046 0.0 103910
06:00−31зюз2110054 0.0 103910
09:00−31зюз2110045 0.0 103810
12:00−21зсз22915 0.0 1034150
15:00−15зсз25765 0.0 1030390
18:00−21зюз22935 0.0 10319
21:00−26зюз22995 0.0 10349
30 января, вс
вс3000:00−29зюз2210046 0.0 103610
03:00−30з1110056 0.0 10379
06:00−31зюз1110060 0.0 10389
09:00−32зюз1110064 0.0 10399
12:00−22зсз129237 0.0 1037164
15:00−17сз357812 0.0 1034444
18:00−22з22935 0.0 10369
21:00−28зюз221005 0.0 103910
31 января, пн
пн3100:00−30зюз2110022 0.0 10419
03:00−31зюз2110023 0.0 10419
06:00−32зюз1110042 0.0 10429
09:00−33зюз1110038 0.0 10429
12:00−23зсз239237 0.0 1039174
15:00−17зсз357712 0.0 1035480
18:00−22з22925 0.0 10369
21:00−28зюз2210014 0.0 10399
1 февраля, вт
вт100:00−30зюз2110022 0.0 10409
03:00−31зюз1110085 0.0 10409
06:00−31зюз11100100 0.0 10399
09:00−32з1110072 0.0 10409
12:00−23зсз129349 0.0 1037160
15:00−17сз357828 0.0 1034461
18:00−22зсз22925 0.0 10359
21:00−28зюз211006 0.0 10399
2 февраля, ср
ср200:00−31зюз1110046 0.0 10419
03:00−32зюз1110055 0.0 10429
06:00−33зюз1110043 0.0 10429
09:00−33зюз1110043 0.0 10439
12:00−23зсз129243 0.0 1039164
15:00−17сз46766 0.0 1035544
18:00−21з22925 0.0 10369
21:00−28зюз221005 0.0 10389